Terug naar catalogus

CZ-4B DEB

ActiefLEO
NORAD 46472·DEBRIS·🇨🇳 China

Gelanceerd Sep 21, 2020 vanaf Jiuquan Satellite Launch Center

Loading…

Volgende Passages (komende 24 uur)

TLE

VersSource: Space-Track

Epoch: Sep 14, 2026, 17:36 UTC

1 46472U 20066D   26257.73389995  .00000041  00000-0  96777-4 0  9997
2 46472  65.9103 256.5602 0036040 312.8222  46.9822 13.92373896304018

Volg CZ-4B DEB in realtime met AllMySat

Download on the App Store